TimePDT,TemperatureF,Dew PointF,Humidity,Sea Level PressureIn,VisibilityMPH,Wind Direction,Wind SpeedMPH,Gust SpeedMPH,PrecipitationIn,Events,Conditions,WindDirDegrees,DateUTC
12:56 AM,79.9,56.8,45,29.85,10.0,SW,17.3,26.5,0.00,Rain,Heavy Rain,230,2013-08-23 07:56:00
1:56 AM,81.0,54.9,41,29.83,10.0,South,17.3,-,0.00,Rain,Heavy Rain,180,2013-08-23 08:56:00
2:56 AM,81.0,55.9,42,29.86,10.0,SSE,20.7,26.5,0.00,Rain,Heavy Rain,160,2013-08-23 09:56:00
3:56 AM,79.0,55.9,45,29.86,10.0,South,20.7,-,0.00,,Clear,190,2013-08-23 10:56:00
4:56 AM,77.9,55.9,47,29.87,10.0,SW,8.1,-,0.00,Rain,Heavy Rain,220,2013-08-23 11:56:00
5:56 AM,75.9,57.9,54,29.88,10.0,SW,6.9,-,0.00,,Clear,230,2013-08-23 12:56:00
6:56 AM,77.0,57.9,52,29.88,10.0,SSE,5.8,-,N/A,,Clear,150,2013-08-23 13:56:00
7:56 AM,79.0,56.8,46,29.90,10.0,South,3.5,-,N/A,,Clear,180,2013-08-23 14:56:00
8:56 AM,82.9,57.9,42,29.90,10.0,NE,6.9,-,N/A,,Clear,50,2013-08-23 15:56:00
9:56 AM,86.9,54.9,33,29.90,10.0,East,6.9,-,N/A,,Clear,80,2013-08-23 16:56:00
10:30 AM,87.8,55.4,33,29.98,10.0,Variable,3.5,-,0.11,,Squalls,0,2013-08-23 17:30:00
10:56 AM,88.9,56.8,34,29.89,10.0,Calm,Calm,-,0.11,,Clear,0,2013-08-23 17:56:00
11:56 AM,88.9,56.8,34,29.87,10.0,Calm,Calm,-,N/A,,Clear,0,2013-08-23 18:56:00
12:56 PM,90.9,56.8,32,29.86,10.0,Calm,Calm,-,N/A,,Clear,0,2013-08-23 19:56:00
1:56 PM,92.8,55.9,29,29.82,10.0,Calm,Calm,-,N/A,,Clear,0,2013-08-23 20:56:00
2:56 PM,93.9,55.9,28,29.79,10.0,North,-9999.0,-,N/A,,Clear,0,2013-08-23 21:56:00
3:56 PM,92.8,54.0,27,29.77,10.0,North,-9999.0,-,N/A,,Clear,0,2013-08-23 22:56:00
4:56 PM,87.8,53.6,31,29.86,10.0,North,-9999.0,-,N/A,,Clear,0,2013-08-23 23:56:00
5:46 PM,80.6,60.8,51,29.87,4.0,North,-9999.0,-,0.04,Rain,Heavy Rain,0,2013-08-24 00:46:00
5:48 PM,80.6,59.0,48,29.88,2.0,North,-9999.0,-,0.11,Rain,Heavy Rain,0,2013-08-24 00:48:00
5:56 PM,77.9,59.0,52,29.81,1.2,North,-9999.0,-,0.18,Rain,Heavy Rain,0,2013-08-24 00:56:00
5:59 PM,77.0,60.8,57,29.86,2.5,North,-9999.0,-,0.00,Rain,Heavy Rain,0,2013-08-24 00:59:00
6:03 PM,75.2,64.4,69,29.86,9.0,North,-9999.0,-,0.00,,Mostly Cloudy,0,2013-08-24 01:03:00
6:56 PM,79.0,63.0,58,29.77,10.0,North,-9999.0,-,0.00,,Clear,0,2013-08-24 01:56:00
7:56 PM,79.9,61.0,52,29.76,10.0,North,-9999.0,-,N/A,,Clear,0,2013-08-24 02:56:00
8:56 PM,77.9,64.9,64,29.78,10.0,North,-9999.0,-,0.00,Rain,Light Rain,0,2013-08-24 03:56:00
9:56 PM,75.9,66.9,74,29.79,10.0,North,-9999.0,-,0.00,,Clear,0,2013-08-24 04:56:00
10:56 PM,77.0,64.9,66,29.80,10.0,North,-9999.0,-,N/A,,Clear,0,2013-08-24 05:56:00
11:56 PM,75.9,63.0,64,29.81,10.0,North,-9999.0,-,N/A,,Clear,0,2013-08-24 06:56:00